Temp
63 63 63 63 63 64 64 64 64 64 64 64 64 64 64 64 64 74 85 92 85 81 84 87 89 79 79 73 79 84 65 70 75 75 78 87 84 91 91 84 86 86 81 81 85
63 63 63 63 63 63 63 63 63 64 64 64 64 64 64 64 72 83 90 83 83 82 87 89 82 87 76 79 79 75 71 79 86 84 82 87 86 87 85 83 82 84 85 85 85
62 62 62 62 62 63 63 63 63 63 63 63 63 64 64 64 74 91 83 83 83 82 94 96 95 96 82 76 83 79 78 89 90 91 90 87 86 91 84 79 83 79 80 83 83
62 62 62 62 62 62 62 62 62 62 62 63 64 64 64 67 74 90 83 82 82 87 92 93 92 87 79 84 85 77 89 92 91 93 91 87 91 87 86 84 89 86 85 84 82
61 61 61 61 61 61 62 62 61 62 62 63 64 65 70 74 85 88 84 82 84 88 89 91 89 88 80 82 81 76 78 86 88 92 92 93 87 87 86 91 90 88 86 84 84
61 60 60 60 61 61 61 61 61 61 62 63 65 65 67 73 98 90 92 87 91 89 91 93 92 96 90 76 73 71 81 77 79 74 88 85 84 86 88 91 88 86 84 84 84
60 60 60 60 60 61 60 60 60 61 62 64 66 73 77 81 99 93 97 93 95 95 91 98 99 92 93 74 79 80 75 76 73 77 79 84 78 80 85 90 86 85 85 86 86
60 60 60 60 60 60 60 59 60 61 63 65 68 71 70 99 97 100 101 98 101 100 97 100 100 93 88 80 76 76 71 62 77 82 81 78 63 80 85 86 83 85 86 87 86
60 60 60 60 59 59 58 59 61 64 66 67 65 66 75 96 91 99 98 97 98 98 97 109 98 86 88 76 65 67 62 68 73 85 82 77 68 79 84 86 83 84 85 86 86
60 60 59 59 59 58 57 59 64 64 72 81 86 72 82 87 94 100 100 100 94 94 94 91 85 78 78 74 60 58 63 70 67 80 84 76 75 81 84 86 84 83 84 84 85
59 59 58 58 58 57 58 73 71 68 74 76 77 82 92 95 95 95 98 95 89 85 75 84 73 70 77 80 75 73 72 73 78 84 81 77 77 81 84 87 84 82 82 84 85
59 58 58 57 57 57 55 70 81 82 73 87 87 91 94 90 86 93 96 84 81 75 81 77 71 82 89 89 77 74 73 74 74 82 82 80 78 83 86 86 85 85 83 85 85
58 58 57 57 56 56 71 81 92 89 70 84 89 89 89 91 86 88 91 87 81 75 78 72 79 91 88 84 76 73 72 80 75 83 86 80 74 79 78 77 80 79 85 87 87
58 58 57 55 60 81 83 88 92 90 63 78 82 88 89 86 82 98 97 89 82 77 79 75 86 87 85 82 84 73 85 87 85 74 67 77 59 66 69 70 77 82 79 87 88
58 57 56 55 62 76 88 93 90 83 53 84 83 96 89 83 85 85 97 86 78 80 73 75 79 80 80 83 86 78 88 84 83 74 68 73 64 63 69 64 68 74 81 88 88
57 56 54 59 66 79 91 93 85 62 59 80 88 83 81 83 86 90 85 85 89 81 81 79 89 83 81 86 85 88 82 79 77 68 58 69 66 61 62 69 72 76 83 89 89
56 55 53 74 79 92 94 83 61 56 82 79 77 82 81 77 82 84 80 74 69 59 64 76 80 85 86 76 82 78 67 55 54 54 55 69 64 69 75 76 78 78 78 85 91
54 53 62 78 87 91 86 70 57 79 77 81 81 84 77 78 78 82 76 71 77 73 66 62 63 76 86 78 73 71 62 55 48 51 57 68 61 69 85 84 82 85 83 86 83
53 72 78 86 83 84 74 61 65 75 83 82 82 77 74 80 77 77 71 73 77 75 61 63 66 84 87 84 81 70 61 70 59 58 56 61 68 77 79 78 84 81 85 88 86
66 78 84 97 93 87 70 63 73 84 85 83 72 78 71 74 73 75 75 79 79 83 78 71 62 76 83 85 83 68 74 61 58 48 49 58 62 63 72 75 80 82 86 86 88
72 76 92 100 96 77 65 72 81 88 86 80 76 74 75 74 75 74 74 79 83 81 80 73 65 68 76 70 68 69 63 64 63 59 51 49 58 70 76 75 78 88 89 89 88
79 71 95 96 74 76 71 77 71 86 86 82 81 79 75 77 73 73 73 76 85 80 69 73 65 59 68 78 83 74 72 64 55 56 57 55 61 81 81 84 84 88 87 89 93
69 78 95 93 69 73 78 82 83 84 82 82 81 81 80 74 66 75 79 85 85 78 68 71 60 53 59 68 78 70 74 69 66 63 55 53 60 82 83 82 85 84 89 84 87
70 71 81 82 82 79 76 78 78 87 83 83 79 80 76 72 74 71 76 86 85 80 76 74 62 58 52 59 67 66 74 73 65 56 58 59 65 74 78 80 81 82 83 82 82
74 74 75 69 75 78 78 77 78 78 83 82 75 79 74 65 69 69 76 77 82 73 74 71 59 62 67 72 73 72 73 74 67 66 56 66 68 73 74 75 80 83 83 83 82
68 68 74 72 78 76 70 72 78 79 77 75 73 79 76 66 65 64 68 67 66 73 71 71 59 62 61 71 71 70 74 74 73 73 72 71 72 71 76 70 68 70 81 80 81
74 74 69 67 75 75 72 75 78 78 79 82 79 74 72 74 76 73 73 73 73 68 65 63 60 56 51 65 66 59 68 72 73 75 71 65 62 69 67 64 65 66 66 62 71
MSLP
1014.99 1014.52 1013.96 1013.59 1013.14 1012.83 1012.43 1011.94 1011.36 1010.91 1010.39 1009.89 1009.45 1008.96 1008.49 1007.88 1006.36 1005.82 1004.61 1002.70 1002.93 1003.38 1004.41 1005.49 1006.15 1007.69 1007.19 1006.57 1007.29 1007.14 1006.86 1003.51 1002.57 1002.66 1002.90 1002.90 1003.11 1003.49 1004.00 1005.18 1005.97 1006.59 1007.53 1009.09 1010.11
1015.06 1014.58 1014.06 1013.52 1013.07 1012.60 1012.27 1011.87 1011.31 1010.74 1010.26 1009.76 1009.26 1008.88 1008.48 1008.04 1006.92 1004.56 1002.27 1002.02 1002.42 1003.19 1004.02 1004.17 1005.14 1005.61 1006.35 1006.06 1005.92 1005.44 1003.41 1001.93 1001.67 1002.02 1002.35 1002.49 1002.83 1003.22 1003.72 1004.76 1005.69 1006.73 1007.89 1009.19 1009.86
1015.08 1014.62 1014.19 1013.60 1013.00 1012.41 1012.07 1011.73 1011.23 1010.64 1010.13 1009.67 1009.22 1008.66 1008.40 1008.16 1006.91 1002.87 1001.84 1002.12 1002.43 1003.11 1002.84 1002.45 1002.46 1002.87 1004.51 1004.62 1004.08 1003.44 1001.64 1001.05 1001.18 1001.38 1001.75 1002.14 1002.48 1002.78 1003.47 1004.19 1004.85 1006.13 1007.72 1008.78 1009.62
1014.93 1014.55 1014.12 1013.63 1013.02 1012.29 1011.73 1011.40 1011.04 1010.53 1009.97 1009.54 1009.13 1008.61 1007.90 1007.83 1005.37 1002.06 1001.79 1002.07 1002.79 1003.42 1002.97 1002.05 1001.49 1001.68 1002.97 1003.29 1002.67 1002.96 1002.13 1000.86 1001.17 1001.34 1001.47 1001.61 1001.78 1002.43 1002.99 1003.42 1004.21 1005.67 1007.01 1008.40 1009.12
1014.69 1014.32 1013.89 1013.39 1012.91 1012.30 1011.69 1011.10 1010.65 1010.30 1009.85 1009.36 1009.06 1008.56 1007.29 1006.62 1003.40 1001.71 1002.07 1002.45 1002.84 1003.23 1002.75 1002.05 1001.38 1001.35 1001.87 1002.46 1003.47 1004.27 1003.09 1003.13 1003.22 1002.37 1001.58 1001.49 1002.22 1002.39 1002.77 1003.21 1004.45 1005.95 1007.00 1008.09 1008.96
1014.52 1013.97 1013.55 1013.11 1012.67 1012.13 1011.63 1011.03 1010.36 1009.90 1009.53 1009.30 1008.94 1008.67 1007.98 1005.28 1001.21 1001.06 1001.65 1002.50 1002.29 1002.35 1002.02 1001.49 1001.12 1000.85 1001.61 1003.57 1005.08 1006.47 1004.68 1004.51 1004.47 1004.47 1002.89 1002.41 1002.55 1002.88 1003.12 1003.55 1004.59 1005.64 1006.85 1007.81 1008.48
1014.37 1013.85 1013.29 1012.84 1012.36 1011.82 1011.30 1010.71 1010.15 1009.54 1009.25 1009.04 1008.88 1008.37 1006.70 1003.17 1000.70 1001.10 1000.94 1001.09 1001.21 1001.39 1001.34 1000.65 1000.45 1000.69 1001.17 1003.85 1004.39 1006.37 1006.26 1006.43 1006.67 1005.39 1004.10 1003.08 1002.77 1003.20 1003.48 1003.84 1004.65 1005.49 1006.42 1007.19 1007.70
1014.11 1013.59 1013.08 1012.48 1011.98 1011.47 1010.85 1010.23 1009.70 1009.20 1008.89 1008.74 1008.57 1007.95 1005.31 1000.98 1000.52 1000.35 1000.21 1000.24 1000.13 1000.29 1000.52 1000.01 999.94 1000.49 1001.91 1004.87 1006.23 1007.33 1007.50 1006.28 1005.36 1005.06 1004.10 1003.94 1003.27 1002.83 1003.23 1003.82 1004.56 1005.19 1005.87 1006.53 1006.94
1013.75 1013.08 1012.56 1012.06 1011.62 1011.12 1010.40 1009.61 1008.98 1008.51 1008.29 1008.37 1008.28 1007.24 1003.74 1000.35 1000.22 999.75 999.80 999.96 999.93 999.79 999.75 999.66 999.74 1000.56 1002.07 1004.89 1006.92 1007.52 1006.22 1005.92 1004.85 1003.24 1003.93 1004.33 1003.40 1002.50 1002.89 1003.40 1004.10 1004.91 1005.50 1006.07 1006.56
1013.38 1012.77 1012.23 1011.71 1011.23 1010.74 1009.85 1008.68 1008.09 1007.94 1007.46 1007.57 1006.96 1006.14 1002.60 1000.34 999.68 999.45 999.23 999.54 999.94 999.91 999.67 999.70 1000.15 1000.50 1001.27 1002.99 1005.45 1006.30 1005.63 1005.37 1005.03 1002.38 1002.84 1003.42 1003.12 1002.36 1002.53 1003.06 1003.81 1004.32 1005.15 1005.78 1006.12
1013.04 1012.38 1011.79 1011.28 1010.94 1010.64 1009.53 1007.97 1008.13 1007.72 1006.70 1005.18 1004.11 1002.63 1000.67 1000.05 999.35 999.42 999.33 999.52 999.81 1000.12 1000.49 1000.02 1000.68 1000.79 1000.84 1001.13 1002.07 1003.53 1004.33 1004.95 1004.02 1002.56 1002.98 1002.04 1002.12 1001.62 1002.12 1002.92 1003.32 1004.14 1004.55 1005.21 1005.62
1012.70 1012.02 1011.37 1010.82 1010.47 1010.40 1010.45 1008.28 1005.67 1004.90 1004.41 1003.34 1002.60 1001.87 1000.71 1000.06 999.88 999.60 999.53 1000.09 1000.10 1000.60 1000.72 1000.81 1000.54 1000.12 999.86 999.70 1001.30 1002.36 1002.67 1002.51 1002.82 1001.74 1001.28 1000.27 1000.83 1001.16 1001.69 1002.32 1003.31 1003.85 1004.45 1004.94 1005.16
1012.27 1011.61 1011.04 1010.46 1009.90 1009.82 1008.34 1006.17 1004.44 1003.94 1003.85 1001.73 1001.14 1000.60 1000.06 1000.10 999.94 999.42 999.32 999.69 1000.18 1000.35 1000.69 1000.75 1000.22 999.53 999.32 999.18 1000.71 1001.05 1000.95 1000.86 1000.90 999.72 999.09 999.17 1000.57 1001.70 1003.32 1003.66 1003.12 1003.53 1003.86 1003.66 1004.10
1012.01 1011.45 1010.85 1010.11 1009.88 1007.74 1006.43 1004.49 1004.10 1003.83 1003.37 1000.92 1000.28 999.44 999.35 999.63 999.66 998.71 998.86 999.54 999.80 1000.10 1000.28 1000.12 999.44 999.12 998.82 998.80 998.98 999.53 999.31 998.81 998.76 998.99 999.36 999.37 1001.59 1002.99 1002.99 1003.13 1001.93 1000.83 1001.82 1002.53 1002.87
1011.70 1011.16 1010.75 1010.69 1009.84 1007.44 1004.96 1004.27 1004.01 1003.97 1002.65 1000.18 999.44 998.94 998.83 999.67 998.94 998.58 998.46 998.71 999.57 999.99 1000.13 999.86 999.12 998.71 998.48 998.13 997.86 998.05 997.76 998.30 998.87 999.51 999.87 1000.05 1001.33 1003.11 1003.49 1003.65 1002.89 1002.26 1002.36 1002.01 1001.86
1011.47 1011.01 1010.51 1010.14 1009.30 1006.21 1004.79 1004.20 1003.96 1003.94 1001.05 999.41 998.90 998.92 999.20 999.21 999.03 998.35 998.78 999.04 999.51 1000.06 999.91 999.70 998.61 998.16 997.94 997.77 997.75 997.97 998.27 998.74 999.43 1000.21 1000.97 1000.71 1001.03 1002.57 1003.04 1002.48 1002.45 1001.88 1001.56 1000.83 1001.41
1010.87 1010.55 1010.65 1009.06 1007.05 1005.04 1004.50 1004.20 1004.20 1002.62 999.75 999.44 999.00 998.58 998.69 999.04 998.86 998.88 999.01 999.45 1000.05 1000.52 1000.36 999.86 998.98 997.92 997.56 997.83 997.91 998.46 999.62 1000.48 1001.28 1001.33 1001.49 1000.26 1000.32 999.67 1000.69 1000.76 1000.45 1000.78 1001.43 1001.58 1000.49
1010.05 1009.85 1008.43 1007.50 1005.95 1005.34 1004.88 1004.67 1003.44 1000.78 1000.05 999.64 999.16 998.72 998.58 998.58 998.53 998.76 998.91 999.64 999.81 1000.33 1000.63 1000.58 999.56 998.55 997.94 997.61 998.05 998.89 999.81 1001.26 1002.00 1002.19 1001.63 1000.29 999.95 999.25 998.48 998.71 999.20 999.74 998.85 997.96 1000.65
1009.02 1007.96 1007.30 1005.28 1005.45 1005.71 1005.55 1004.44 1002.64 1001.40 1000.63 999.94 999.40 998.98 998.79 998.80 999.00 998.82 999.04 999.55 1000.01 1000.38 1001.00 1000.64 999.85 998.75 997.92 997.45 997.56 998.61 999.45 1000.26 1001.59 1001.82 1001.96 1000.98 1000.36 999.14 999.03 998.86 998.46 998.81 997.53 997.46 999.07
1009.35 1007.53 1005.31 1003.50 1004.15 1004.76 1004.95 1003.63 1002.09 1001.47 1000.97 1000.45 1000.14 999.49 999.71 999.47 999.35 999.30 999.16 999.85 1000.23 1000.53 1000.78 1001.17 1000.95 999.74 998.75 997.84 997.69 998.17 999.11 1000.36 1001.68 1003.05 1002.98 1001.55 1000.00 999.18 998.90 998.67 998.67 998.13 997.83 997.85 998.52
1009.25 1006.84 1003.28 1002.71 1003.09 1004.17 1004.32 1002.72 1001.84 1001.48 1001.34 1001.01 1000.84 1000.66 1000.44 1000.42 1000.24 1000.36 1000.27 1000.81 1000.83 1001.29 1001.40 1001.96 1002.10 1001.30 999.93 999.47 999.50 999.01 999.56 1000.65 1001.68 1002.89 1003.37 1002.50 1000.94 998.39 997.81 997.54 997.20 996.11 997.71 997.90 996.66
1009.16 1006.46 1002.95 1002.65 1003.40 1003.24 1003.04 1002.55 1002.31 1001.59 1001.34 1001.27 1001.19 1001.27 1001.37 1001.41 1001.40 1001.23 1001.24 1001.30 1001.54 1001.97 1002.74 1003.15 1003.03 1002.81 1001.45 1000.52 999.79 999.76 1000.28 1000.86 1002.40 1003.07 1002.67 1001.76 999.93 997.95 997.59 996.77 997.04 996.54 996.61 996.83 997.13
1010.22 1006.31 1002.77 1002.75 1003.45 1003.22 1002.51 1002.26 1002.13 1001.98 1001.94 1001.84 1001.85 1002.05 1002.21 1002.41 1002.54 1002.11 1001.75 1001.45 1001.63 1002.24 1003.29 1003.78 1004.12 1004.20 1002.79 1001.35 1000.68 1000.90 1000.87 1001.08 1001.49 1001.84 1002.60 1002.10 1000.22 998.66 997.75 997.35 997.39 997.46 997.03 996.94 996.98
1010.64 1006.95 1004.27 1003.59 1003.43 1003.68 1003.46 1002.82 1002.32 1002.31 1002.31 1002.60 1002.84 1002.79 1002.95 1003.19 1002.93 1002.97 1002.45 1001.97 1002.05 1002.65 1003.35 1003.85 1004.77 1005.20 1004.78 1003.82 1002.74 1001.93 1001.40 1001.25 1001.67 1002.28 1002.47 1001.78 1000.72 999.29 999.03 998.45 998.36 998.53 998.55 998.47 998.26
1010.15 1008.22 1007.57 1005.99 1005.19 1004.69 1004.36 1003.90 1003.25 1002.80 1002.72 1002.99 1003.33 1003.43 1003.57 1004.01 1004.13 1004.05 1003.70 1003.40 1003.24 1003.63 1003.77 1004.09 1005.05 1005.08 1004.65 1003.74 1002.93 1002.37 1001.77 1001.39 1001.56 1001.64 1002.04 1001.55 1001.28 1000.08 1000.00 999.51 998.94 998.89 999.13 999.37 999.46
1011.71 1010.72 1009.20 1007.99 1006.36 1005.43 1004.82 1004.46 1003.89 1003.80 1004.10 1004.02 1004.36 1004.22 1004.38 1004.88 1005.44 1005.48 1005.29 1005.14 1004.72 1004.29 1004.57 1004.73 1005.31 1005.36 1005.15 1004.37 1003.65 1002.85 1001.93 1001.28 1001.00 1001.03 1001.08 1001.27 1001.08 1001.56 1000.81 1000.85 1001.87 1002.50 1000.88 1000.36 1000.06
1013.28 1012.10 1010.88 1008.82 1007.45 1006.40 1005.70 1005.25 1004.93 1004.89 1004.84 1004.71 1004.94 1005.03 1005.17 1005.30 1005.54 1005.67 1005.62 1005.42 1005.25 1005.22 1005.32 1005.53 1005.75 1006.19 1005.98 1005.09 1004.21 1003.26 1001.88 1001.25 1000.88 1000.46 1000.91 1001.91 1002.37 1001.92 1002.85 1003.97 1004.04 1003.48 1003.77 1004.31 1004.21
Wind_Speed
17 17 18 18 18 18 18 19 19 19 19 19 18 18 18 20 24 4 5 5 7 20 10 14 13 28 21 8 8 8 6 5 12 10 5 10 15 14 16 18 13 15 9 21 19
17 17 18 19 19 19 18 18 19 20 19 19 19 18 17 17 6 9 5 12 12 19 8 13 20 21 4 2 2 4 3 11 11 8 6 11 11 10 10 20 17 13 19 23 19
17 17 17 18 20 19 19 18 18 19 20 19 19 19 17 13 5 7 8 6 13 14 5 10 14 10 10 7 5 8 7 13 13 10 13 9 10 10 12 8 16 23 25 25 22
18 17 18 17 18 20 20 20 18 19 20 19 19 18 20 4 4 3 9 10 8 7 7 8 10 10 2 5 4 5 14 13 11 8 8 10 13 8 9 8 20 26 26 21 21
19 18 18 18 18 19 20 21 20 19 19 19 18 16 8 3 10 7 8 4 7 5 6 10 15 11 1 6 9 10 15 14 23 8 8 6 6 2 14 16 23 24 23 20 16
20 20 19 19 19 19 19 19 20 20 19 18 16 15 3 6 3 12 11 8 8 7 6 10 10 17 14 6 12 12 10 13 25 24 8 5 5 5 6 20 24 24 22 19 19
21 21 21 20 19 19 20 19 21 22 19 17 13 6 5 16 5 10 12 8 8 9 9 13 11 10 6 6 17 14 3 12 10 17 5 6 1 3 2 18 21 20 19 20 18
21 21 21 21 20 20 20 20 21 21 18 13 7 4 9 10 7 15 10 7 10 11 12 14 10 8 9 16 8 11 4 7 5 5 5 6 10 4 7 11 19 19 17 17 15
21 21 21 21 19 19 20 22 22 20 15 10 4 4 10 6 4 9 8 8 9 9 9 12 9 6 5 14 5 3 5 2 12 8 8 8 7 8 5 8 15 16 16 15 14
20 20 21 20 18 18 22 20 10 11 6 7 8 5 8 10 7 11 10 9 8 9 10 8 5 6 6 5 7 9 5 2 8 7 9 12 14 4 9 10 14 14 13 12 14
20 19 19 18 16 13 13 3 1 2 5 9 7 7 7 8 3 4 6 8 5 5 7 9 4 7 13 7 18 13 12 18 24 22 18 19 17 16 14 12 14 12 13 13 13
22 19 19 17 15 10 4 3 6 5 8 14 18 16 11 4 5 11 7 6 6 7 8 8 8 12 14 18 21 17 10 7 16 27 17 21 16 18 18 14 11 13 12 13 11
20 19 18 17 16 4 5 8 6 7 3 9 13 9 8 7 10 15 9 10 9 7 9 9 12 13 14 13 15 10 10 11 14 24 8 4 8 19 4 6 9 1 6 14 16
20 18 17 20 4 5 6 5 5 6 3 4 7 6 4 1 8 13 13 10 6 12 11 8 13 16 15 11 9 10 21 8 8 3 2 2 2 2 4 6 7 21 10 17 19
20 18 15 6 7 5 6 6 4 2 2 10 6 5 3 8 7 5 9 4 7 10 4 13 9 9 11 12 9 8 8 6 8 8 6 5 6 5 6 5 8 18 11 19 19
19 16 17 4 4 10 11 7 3 1 2 6 7 8 7 8 9 1 3 1 8 8 12 11 12 7 7 6 6 9 9 11 7 3 5 10 6 7 8 12 14 20 16 14 18
20 15 7 6 5 11 8 4 2 3 3 6 1 6 11 8 9 8 9 7 5 3 7 9 14 10 6 6 8 7 7 5 6 5 8 12 3 10 22 16 16 22 12 15 16
22 15 10 7 7 10 5 3 4 9 8 1 2 7 2 3 5 8 6 5 9 9 6 5 10 5 8 9 10 8 4 6 4 4 8 8 6 4 13 15 12 12 8 10 12
28 3 4 6 12 6 1 3 2 9 11 9 12 7 4 4 2 4 4 5 7 7 4 6 10 14 13 5 12 7 3 8 2 6 4 5 7 5 5 6 14 13 12 18 16
3 4 6 12 12 6 1 5 3 6 7 12 8 8 8 4 3 9 5 6 7 11 8 8 9 8 11 9 7 2 5 7 5 4 7 8 8 4 6 6 5 10 4 11 19
3 3 3 8 5 1 4 3 4 8 6 7 10 8 8 7 8 10 7 11 11 10 11 9 6 12 8 5 7 6 2 3 4 6 4 3 9 2 5 14 7 19 23 10 12
5 3 4 2 2 3 3 2 1 5 4 3 4 7 8 10 9 9 7 5 8 6 5 8 4 6 11 6 12 6 9 2 7 10 5 6 11 6 8 5 14 23 15 9 6
4 5 3 2 3 5 3 3 2 7 10 9 8 7 9 6 5 8 11 6 9 5 4 6 5 6 14 10 15 7 9 8 5 4 4 3 9 8 10 15 13 5 14 5 7
3 4 4 2 3 7 9 7 2 5 3 4 8 8 7 7 8 5 4 5 5 7 8 7 3 6 6 10 6 9 13 10 5 3 6 5 10 10 8 6 9 9 8 8 8
2 4 4 5 8 7 8 9 11 6 4 4 2 7 6 6 9 9 13 11 12 4 2 3 5 6 9 9 10 11 14 13 8 8 3 11 10 13 8 4 9 9 9 9 9
5 5 7 8 10 7 5 4 9 8 8 8 8 13 8 5 5 7 9 8 5 9 9 8 7 7 6 9 11 12 10 9 9 7 8 9 15 7 10 25 26 26 9 8 7
6 6 3 7 7 9 5 8 10 8 5 9 11 6 7 8 7 6 7 9 11 9 7 5 4 5 6 9 10 8 9 9 9 8 5 6 2 7 18 17 15 14 14 21 30
Wind_Direction
344 341 339 337 335 333 331 328 326 326 324 321 321 323 324 325 311 162 250 218 179 174 146 153 181 136 170 220 163 200 280 68 105 111 179 121 95 103 130 137 161 179 130 152 160
341 339 337 334 331 330 327 325 323 323 321 320 320 323 325 331 295 265 207 144 150 157 169 187 184 201 201 205 236 189 188 114 119 147 139 139 116 133 137 156 164 130 128 148 161
338 337 334 332 327 326 323 322 321 319 318 320 321 321 321 321 296 245 144 153 166 172 289 286 274 273 211 183 227 271 88 95 108 121 116 120 134 162 159 149 151 147 147 155 166
336 334 331 329 325 323 320 318 317 316 315 319 322 321 315 241 285 74 167 160 165 215 267 286 281 282 149 101 200 24 13 115 118 127 149 169 156 167 174 177 145 146 150 157 165
332 331 329 327 323 320 317 314 313 312 313 317 322 326 344 268 252 132 139 138 160 189 240 263 285 310 83 125 341 26 47 2 25 304 124 104 57 205 121 130 134 144 152 160 170
330 330 328 325 321 317 313 310 309 310 311 315 319 318 244 260 224 145 152 150 225 194 254 258 273 294 83 73 70 321 70 65 24 302 36 47 63 53 127 135 140 148 158 166 182
331 327 324 321 318 316 312 307 306 305 307 309 310 301 262 240 284 179 166 191 196 230 244 258 280 343 342 71 44 348 334 101 189 247 277 343 63 138 343 145 150 154 163 175 191
327 324 321 319 317 314 308 304 300 297 297 298 299 268 254 272 270 250 229 253 230 207 223 264 288 295 55 119 92 295 331 10 251 301 284 66 277 254 234 164 159 161 170 178 193
327 323 321 318 315 313 308 299 293 288 278 272 263 224 269 287 224 244 249 250 254 259 238 248 280 258 197 119 79 287 291 162 296 212 216 199 245 230 228 182 156 164 174 178 193
325 322 320 316 314 316 310 287 280 315 213 230 258 300 269 245 239 225 232 234 255 288 299 223 248 269 276 170 177 217 329 146 260 283 223 208 257 221 191 172 163 161 172 184 190
323 318 314 312 313 322 337 4 24 14 260 216 204 231 331 253 323 353 329 323 255 276 287 287 212 242 256 270 154 124 107 307 311 288 270 239 205 183 187 175 164 172 173 186 189
327 321 317 313 310 314 285 264 20 277 299 240 251 252 254 330 340 290 214 234 263 232 256 298 265 253 262 272 141 144 176 189 209 262 261 268 169 178 176 178 162 172 174 190 190
327 324 320 314 313 270 230 268 291 315 265 274 206 231 235 220 245 266 182 215 240 272 242 230 255 268 268 272 152 188 203 245 211 238 252 285 142 156 61 94 123 67 245 188 192
327 326 324 318 321 311 241 220 1 328 305 216 187 242 144 151 280 231 259 206 240 243 262 233 248 266 279 278 257 223 222 286 319 28 266 47 215 122 182 176 170 220 215 202 187
328 328 325 341 306 298 348 333 327 2 314 170 184 145 220 172 287 241 246 2 252 267 277 264 273 262 272 273 292 275 298 331 327 331 19 300 81 252 184 188 197 245 235 217 184
325 325 329 138 218 250 295 314 324 338 255 144 151 189 199 225 262 130 144 213 282 307 295 261 279 267 256 305 354 341 353 338 324 359 345 260 166 249 190 191 211 232 236 213 186
321 311 307 317 253 320 310 306 316 225 168 43 145 176 198 191 223 175 185 214 183 308 269 283 269 271 276 311 338 348 355 330 339 346 230 258 295 227 198 192 197 214 229 272 197
316 309 213 223 268 297 308 324 268 14 39 157 260 285 342 60 287 199 225 215 218 213 263 247 312 289 289 186 201 245 184 159 284 272 266 328 295 189 164 190 182 182 239 177 240
313 181 233 233 216 246 310 291 320 1 354 338 325 258 198 137 217 237 238 110 83 70 47 11 320 330 325 289 164 254 282 235 301 290 13 279 346 6 83 169 208 187 192 220 218
312 285 267 243 175 217 306 274 29 1 347 323 326 4 2 36 327 358 90 28 64 42 24 323 339 312 306 356 350 118 232 2 353 4 325 307 298 208 227 211 356 39 260 228 198
255 288 206 173 179 207 245 278 6 80 358 338 352 344 2 15 357 346 66 38 42 23 2 7 19 304 343 325 315 320 278 240 160 146 190 296 284 168 195 188 174 83 33 329 168
309 292 188 217 319 237 215 101 307 0 149 297 312 339 4 359 351 354 31 88 65 38 28 10 274 325 294 346 18 33 11 41 112 291 229 166 272 314 2 27 150 150 166 188 91
301 260 194 186 280 320 135 160 195 4 5 0 360 17 8 344 354 337 340 134 108 91 104 16 342 350 335 342 3 8 334 324 340 48 282 112 269 45 30 51 41 163 175 158 109
295 307 357 344 276 359 2 354 78 127 246 42 347 336 323 348 342 311 316 332 146 98 128 107 252 213 242 266 297 333 330 331 343 16 303 281 322 343 6 73 81 79 68 47 37
270 345 9 332 339 353 344 339 328 326 100 64 262 309 14 27 344 348 360 347 2 170 301 135 250 270 282 314 329 319 310 310 311 288 315 299 322 305 341 162 147 128 104 78 44
8 354 342 298 299 310 262 309 305 28 29 356 346 350 18 32 54 328 351 348 300 337 348 332 309 335 326 320 314 310 307 296 289 291 297 297 292 13 36 51 42 11 37 98 88
9 325 275 286 308 303 19 9 355 19 346 343 15 9 340 350 360 325 291 276 269 274 280 287 295 341 293 312 315 324 291 306 295 310 325 297 310 314 47 44 30 36 31 20 348